Starlink 2475

operational
NORAD ID: 48133 Int'l Des: 2021-027 Owner: SPXS Country: US Constellation: starlink
LEOCIRCULAR

About Starlink 2475

Description loading...

Live Position

Loading 3D Globe...

Upcoming Passes

Altitude History

Altitude vs Time

uPlot chart will show altitude changes over time

Two-Line Element Set

1 48133U 21027AT 26062.60351135 .00019229 00000-0 65995-3 0 9991
2 48133 53.1614 193.5989 0001336 57.0172 303.0957 15.30187061271582
Epoch: Mar 3, 2026 • Age: 31 hours

Current Status

Altitude 491.8 km
Velocity 7.62 km/s
Sub-Earth Point -47.17°S, 136.83°W
Launch Date Apr 7, 2021
Age 4.9 years
Type internet

Technical Details

Classification Payload
Mass 260.00 kg
Dry Mass 248.00 kg
Total Mass 260.00 kg
Length 0.20 m
Diameter 2.80 m
Span 9.00 m
Shape Box + pan
Manufacturer SPXS
Bus Type Starlink
Phase Status In Orbit
Owner/State SPXS/US

Large Constellations

Loading constellations...